Back to catalog

HULIANWANG DIGUI-11

AliveCommunicationsLEO
NORAD 62971·PAYLOAD·🇨🇳 China

Launched Feb 11, 2025 from Wenchang Space Launch Site

Loading…

Next Passes (next 24 hours)

TLE

FreshSource: Space-Track

Epoch: Sep 14, 2026, 13:10 UTC

1 62971U 25030A   26257.54862433 -.00000093  00000-0  66213-4 0  9997
2 62971  50.0000 275.3052 0000481  44.9708 315.1203 13.29327085 77741

Track HULIANWANG DIGUI-11 in real time with AllMySat

Download on the App Store